Regional Weather Roundup
Issued by NWS Charleston, WV

Home | Current Version | Previous Version | Text Only | Print | Product List | Glossary Off
Versions: 1 2 3 4 5 6 7 8 9 10 11 12 13 14 15 16 17 18 19 20 21 22 23 24 25 26 27 28 29 30 31 32 33 34 35 36 37 38 39 40 41 42 43 44 45 46 47 48 49 50

000
ASUS41 KRLX 072310
RWRRLX
West Virginia Regional Weather Roundup
National Weather Service Charleston WV
600 PM EST SUN FEB 07 2016

Note: "fair" indicates few or no clouds below 12,000 feet with no
significant weather and/or obstructions to visibility.

WVZ003-080000-
Northern Panhandle of West Virginia

CITY           SKY/WX    TMP DP  RH WIND       PRES   REMARKS
WHEELING         N/A     46  20  35 SW6       29.90F
$$

WVZ009-080000-
Northwest West Virginia

CITY           SKY/WX    TMP DP  RH WIND       PRES   REMARKS
PARKERSBURG      N/A     49  21  33 S6        29.94F
$$

WVZ006-080000-
Western West Virginia

CITY           SKY/WX    TMP DP  RH WIND       PRES   REMARKS
HUNTINGTON       N/A     50  21  32 SW6       29.92F
$$

WVZ015-080000-
West Central West Virginia

CITY           SKY/WX    TMP DP  RH WIND       PRES   REMARKS
CHARLESTON       N/A     50  21  32 CALM      29.92F
$$

WVZ022-031-080000-
North Central West Virginia

CITY           SKY/WX    TMP DP  RH WIND       PRES   REMARKS
CLARKSBURG       N/A     45  23  42 S3        29.93S
MORGANTOWN       N/A     45  21  38 CALM      29.93F
$$

WVZ025-035-042-045-080000-
Southern West Virginia

CITY           SKY/WX    TMP DP  RH WIND       PRES   REMARKS
BECKLEY          N/A     41  20  43 N5        29.91S
LOGAN            N/A     46  21  36 W6        29.92S
BLUEFIELD        N/A     40  19  43 NW8       29.91S
LEWISBURG        N/A     45  24  44 NW3       29.91S
$$

WVZ047-080000-
Northern Mountains of West Virginia

CITY           SKY/WX    TMP DP  RH WIND       PRES   REMARKS
ELKINS           N/A     35  20  54 CALM      29.93R
$$

WVZ052-080000-
Eastern Panhandle of West Virginia

CITY           SKY/WX    TMP DP  RH WIND       PRES   REMARKS
MARTINSBURG      N/A     39  21  48 CALM      29.96F
PETERSBURG       N/A     38  29  69 CALM      29.95S
$$



USA.gov is the U.S. government's official web portal to all federal, state and local government web resources and services.